TimeMST,TemperatureF,Dew PointF,Humidity,Sea Level PressureIn,VisibilityMPH,Wind Direction,Wind SpeedMPH,Gust SpeedMPH,PrecipitationIn,Events,Conditions,WindDirDegrees,DateUTC
12:56 AM,36.0,16.0,44,30.01,10.0,West,26.5,-,N/A,,Clear,260,2013-01-04 07:56:00
1:56 AM,36.0,15.1,43,30.02,10.0,West,27.6,39.1,N/A,,Clear,260,2013-01-04 08:56:00
2:56 AM,36.0,12.9,39,30.04,10.0,West,21.9,29.9,N/A,,Clear,260,2013-01-04 09:56:00
3:31 AM,35.6,10.4,35,29.99,10.0,WSW,20.7,26.5,N/A,,Clear,250,2013-01-04 10:31:00
3:56 AM,33.1,12.9,43,30.04,10.0,WSW,32.2,40.3,N/A,,Clear,250,2013-01-04 10:56:00
4:56 AM,32.0,14.0,48,30.07,10.0,WSW,27.6,33.4,N/A,,Clear,240,2013-01-04 11:56:00
5:56 AM,32.0,14.0,48,30.09,10.0,WSW,27.6,33.4,N/A,,Clear,250,2013-01-04 12:56:00
6:56 AM,32.0,17.1,54,30.07,10.0,WSW,33.4,44.9,N/A,,Clear,240,2013-01-04 13:56:00
7:56 AM,30.9,18.0,59,30.07,10.0,WSW,29.9,38.0,N/A,,Clear,240,2013-01-04 14:56:00
8:56 AM,32.0,19.9,61,30.08,10.0,SW,28.8,34.5,N/A,,Clear,230,2013-01-04 15:56:00
9:56 AM,34.0,21.9,61,30.06,10.0,WSW,27.6,32.2,N/A,,Clear,240,2013-01-04 16:56:00
10:56 AM,35.1,23.0,61,30.09,10.0,WSW,23.0,31.1,N/A,,Clear,250,2013-01-04 17:56:00
11:56 AM,37.9,24.1,57,30.07,10.0,West,12.7,23.0,N/A,,Clear,280,2013-01-04 18:56:00
12:56 PM,37.0,24.1,59,30.05,10.0,West,27.6,33.4,N/A,,Clear,260,2013-01-04 19:56:00
1:56 PM,37.0,24.1,59,30.04,10.0,WSW,33.4,44.9,N/A,,Clear,250,2013-01-04 20:56:00
2:56 PM,36.0,24.1,62,30.07,10.0,WSW,26.5,39.1,N/A,,Clear,250,2013-01-04 21:56:00
3:56 PM,35.1,24.1,64,30.09,10.0,West,21.9,32.2,N/A,,Mostly Cloudy,270,2013-01-04 22:56:00
4:56 PM,32.0,21.9,66,30.12,10.0,WSW,21.9,-,N/A,,Scattered Clouds,250,2013-01-04 23:56:00
5:56 PM,30.9,21.9,69,30.14,10.0,West,15.0,-,N/A,,Partly Cloudy,260,2013-01-05 00:56:00
6:56 PM,28.9,21.0,72,30.14,10.0,West,19.6,-,N/A,,Clear,260,2013-01-05 01:56:00
7:56 PM,26.1,19.0,75,30.17,10.0,WNW,6.9,-,N/A,,Clear,290,2013-01-05 02:56:00
8:56 PM,23.0,17.1,78,30.19,10.0,West,6.9,-,N/A,,Clear,260,2013-01-05 03:56:00
9:56 PM,23.0,17.1,78,30.20,10.0,West,9.2,-,N/A,,Clear,280,2013-01-05 04:56:00
10:56 PM,24.1,17.1,75,30.22,10.0,WNW,11.5,-,N/A,,Clear,290,2013-01-05 05:56:00
11:56 PM,25.0,18.0,75,30.21,10.0,WNW,11.5,-,N/A,,Clear,290,2013-01-05 06:56:00